Flag for Germany Weather past 2 weeks in Wesel, North Rhine-Westphalia, Germany

Now
75 °F

Scattered showers. Scattered clouds.


Feels Like: 78 °F
Forecast: 59 / 77 °F
Wind: 26 mph from West

Location: Niederrhein

Current Time: Jul 5, 2015 at 5:40:01 PM

Latest Report: Jul 5, 2015 at 4:50 PM


Visibility: 6 mi

Pressure: 29.95 "Hg

Humidity: 57%

Dew point: 59 °F

Location of WeselLocation

Historic Weather in Wesel — Graph

°F

Wesel temperature yesterday

Maximum temperature yesterday: 97 °F (at 3:20 PM)
Minimum temperature yesterday: 73 °F (at 5:20 AM)
Average temperature yesterday: 86 °F

Past Weeks' High & Low Weather Summary

 TemperatureHumidityPressure
High100 °F (Jul 2, 3:50 PM)100% (Jun 21, 1:50 PM)30.27 "Hg (Jun 21, 1:50 PM)
Low50 °F (Jun 22, 10:50 PM)24% (Jul 1, 3:20 PM)29.68 "Hg (Jun 22, 7:50 PM)
Average70 °F63%30.06 "Hg
* Reported Jun 20 4:20 PM — Jul 5 4:20 PM, Wesel, Weather by CustomWeather, © 2015

Note: Actual official high and low records may vary slightly from our data, if they occured in-between our weather recording intervals... More about our weather records

Advertising

Wesel weather history for previous 24 hours

 ConditionsComfort  
Time TempWeatherWind HumidityBarometerVisibility
4:20 PM
Sun, Jul 5
84 °FPassing clouds.13 mph58%29.92 "HgN/A
3:50 PM86 °FPassing clouds.8 mph55%29.92 "HgN/A
3:20 PM86 °FPassing clouds.7 mph55%29.92 "HgN/A
2:50 PM84 °FPassing clouds.10 mph55%29.92 "HgN/A
2:20 PM86 °FPassing clouds.6 mph55%29.92 "HgN/A
1:50 PM84 °FPassing clouds.7 mph58%29.95 "HgN/A
1:20 PM82 °FPassing clouds.9 mph58%29.95 "HgN/A
12:50 PM81 °FPassing clouds.6 mph62%29.98 "HgN/A
12:20 PM81 °FPassing clouds.6 mph62%29.98 "HgN/A
11:50 AM77 °FPassing clouds.5 mph65%30.01 "HgN/A
11:20 AM77 °FPassing clouds.6 mph65%30.01 "HgN/A
10:50 AM75 °FSunny.3 mph65%30.01 "Hg10 mi
10:20 AM75 °FSunny.3 mph65%30.04 "Hg10 mi
9:50 AM73 °FPassing clouds.7 mph69%30.04 "HgN/A
9:20 AM72 °FSunny.1 mph73%30.07 "Hg10 mi
8:50 AM70 °FSunny.No wind73%30.07 "Hg10 mi
8:20 AM68 °FSunny.1 mph78%30.07 "Hg10 mi
7:50 AM66 °FSunny.3 mph83%30.07 "Hg10 mi
7:20 AM64 °FClear.No wind83%30.07 "Hg10 mi
6:50 AM64 °FSprinkles. Passing clouds.2 mph88%30.07 "HgN/A
6:20 AM64 °FSprinkles. Passing clouds.3 mph83%30.09 "HgN/A
5:50 AM66 °FClear.3 mph73%30.09 "Hg10 mi
5:20 AM66 °FClear.No wind73%30.09 "Hg10 mi
4:50 AM66 °FClear.3 mph73%30.12 "Hg10 mi
11:50 PM
Sat, Jul 4
75 °FPassing clouds.5 mph57%30.12 "HgN/A
11:20 PM75 °FPassing clouds.6 mph54%30.12 "HgN/A
10:50 PM77 °FSunny.3 mph51%30.12 "Hg10 mi
10:20 PM79 °FPassing clouds.6 mph48%30.09 "HgN/A
9:50 PM79 °FPassing clouds.7 mph48%30.09 "HgN/A
9:20 PM81 °FPassing clouds.5 mph51%30.09 "HgN/A
8:50 PM82 °FPassing clouds.6 mph48%30.09 "HgN/A
8:20 PM84 °FPassing clouds.8 mph45%30.09 "HgN/A
7:50 PM86 °FPassing clouds.6 mph43%30.07 "HgN/A
7:20 PM88 °FPassing clouds.6 mph40%30.07 "HgN/A
6:50 PM90 °FPassing clouds.6 mph41%30.07 "HgN/A
6:20 PM91 °FPassing clouds.7 mph41%30.07 "HgN/A
5:50 PM93 °FPassing clouds.7 mph39%30.07 "HgN/A
5:20 PM93 °FPassing clouds.7 mph39%30.07 "HgN/A
Weather by CustomWeather, © 2015

See weather overviewHow to use our weather pages